Location: Cassano d�Adda
(45.5333°N, 9.5167°E)
Time: 21:15:43
(UTC+00:00)

Cosmos 2322 Rocket - Pass Details

Date: 08 December 2019
Orbit: 831 x 852 km, 71.0° (Epoch: 19 January)

Event Time Altitude Azimuth Distance (km) Brightness Sun altitude
Rises 16:21:47 0° 246° (WSW) 3,372 8.0 -7.5°
Reaches altitude 10° 16:24:43 10° 261° (W) 2,445 6.1 -8.0°
Maximum altitude 16:29:06 23° 313° (NW) 1,714 4.1 -8.7°
Drops below altitude 10° 16:33:32 10° 4° (N) 2,465 4.4 -9.4°
Sets 16:36:32 0° 19° (NNE) 3,408 5.0 -9.9°
